Location: Mahannah Oil Field
(37.4664°N, 96.6003°W)
Time: 22:06:05
(UTC+00:00)

Courier 1B Rocket - Pass Details

Date: 30 January 2021
Orbit: 920 x 1202 km, 28.2° (Epoch: 08 March)

Event Time Altitude Azimuth Distance (km) Brightness Sun altitude
Exits shadow 12:23:39 10° 244° (WSW) 2,631 6.8 -13.7°
Maximum altitude 12:29:24 38° 179° (S) 1,462 6.1 -12.5°
Drops below altitude 10° 12:35:34 10° 114° (ESE) 2,815 8.9 -11.4°
Sets 12:38:33 0° 106° (ESE) 3,815 10.4 -10.8°
